Date String (YYYY-MM-DD hh:mm:ss) UTC,Instrument flags,absolute air pressure of the measurement (hPa),sample flow rate (lpm),inlet stack bypass flow (lpm),air temperature of the measurement (°C),ambient temperature measured by the external sensor (°C),aerosol sample conditioner tube jacket temperature (°C),OPC LED temperature (°C),internal box temperature (°C),relative humidity of the measurement (%),span deviation,mass concentration of particles derived from Lorenz-Mie calculation of OPC scattering (μg/m³),mass concentration of particles derived from Lorenz-Mie calculation of OPC scattering (μg/m³),mass concentration of particles derived from Lorenz-Mie calculation of OPC scattering (μg/m³)
DateTimeUTC,F1_M11,P_M11,Q1_M11,Q2_M11,T1_M11,T2_M11,T3_M11,T4_M11,T5_M11,U1_M11,ZSPAN_M11,X2_M11,X0_M11,X1_M11
2024-02-28 14:00:00,SystemResetWarning,0827.8,4.98,000.00,019.1,019.4,000.0,027.4,021.3,06.9,0000.0,0001.99,0005.35,0001.27
2024-02-28 14:01:00,SystemResetWarning,0827.8,5.01,000.00,019.1,019.2,000.0,027.4,021.1,06.9,0000.0,0002.02,0005.51,0001.27
2024-02-28 14:02:00,SystemResetWarning,0827.7,5.01,000.00,019.1,019.0,000.0,027.3,021.0,06.8,0000.0,0001.99,0005.61,0001.28
2024-02-28 14:03:00,SystemResetWarning,0827.8,5.00,000.00,019.0,018.8,000.0,027.3,020.9,06.8,0000.0,0002.00,0005.59,0001.29
2024-02-28 14:04:00,SystemResetWarning,0827.8,5.00,000.00,019.0,018.7,000.0,027.3,020.8,06.8,0000.0,0002.05,0005.68,0001.31
2024-02-28 14:05:00,SystemResetWarning,0827.8,4.99,000.00,019.0,018.5,000.0,027.3,020.7,06.8,0000.0,0002.08,0005.33,0001.32
2024-02-28 14:06:00,SystemResetWarning,0827.8,4.99,000.00,019.0,018.4,000.0,027.3,020.7,06.8,0000.0,0002.06,0005.45,0001.30
2024-02-28 14:07:00,SystemResetWarning,0827.8,4.99,000.00,018.9,018.3,000.0,027.3,020.7,06.8,0000.0,0002.06,0007.30,0001.28
2024-02-28 14:08:00,SystemResetWarning,0827.8,5.00,000.00,018.9,018.3,000.0,027.3,020.7,06.8,0000.0,0002.06,0007.40,0001.27
2024-02-28 14:09:00,SystemResetWarning,0827.8,5.00,000.00,018.9,018.2,000.0,027.3,020.6,06.9,0000.0,0002.07,0007.65,0001.27
2024-02-28 14:10:00,SystemResetWarning,0827.9,5.01,000.00,018.8,018.2,000.0,027.3,020.6,06.9,0000.0,0002.11,0007.98,0001.26
2024-02-28 14:11:00,SystemResetWarning,0827.8,5.00,000.00,018.8,018.1,000.0,027.3,020.5,07.0,0000.0,0002.09,0008.34,0001.27
2024-02-28 14:12:00,SystemResetWarning,0827.8,4.99,000.00,018.8,018.1,000.0,027.3,020.5,06.9,0000.0,0002.09,0008.66,0001.27
2024-02-28 14:13:00,SystemResetWarning,0827.9,5.01,000.00,018.7,018.0,000.0,027.3,020.5,06.9,0000.0,0002.08,0008.10,0001.28
2024-02-28 14:14:00,SystemResetWarning,0827.9,5.01,000.00,018.7,018.0,000.0,027.3,020.4,06.9,0000.0,0002.07,0008.35,0001.26
2024-02-28 14:15:00,SystemResetWarning,0828.0,5.00,000.00,018.7,018.0,000.0,027.2,020.4,06.9,0000.0,0002.06,0008.85,0001.26
2024-02-28 14:16:00,SystemResetWarning,0828.1,5.00,000.00,018.6,017.9,000.0,027.2,020.4,06.9,0000.0,0002.02,0008.76,0001.24
2024-02-28 14:17:00,SystemResetWarning,0828.1,4.99,000.00,018.6,017.9,000.0,027.2,020.4,06.8,0000.0,0002.03,0008.66,0001.26
2024-02-28 14:18:00,SystemResetWarning,0828.1,5.01,000.00,018.7,018.4,000.0,027.3,020.6,06.8,0000.0,0002.00,0007.78,0001.26
2024-02-28 14:19:00,SystemResetWarning,0828.2,5.00,000.00,018.9,019.3,000.0,027.4,021.2,06.8,0000.0,0002.04,0007.62,0001.27
2024-02-28 14:20:00,SystemResetWarning,0828.2,5.00,000.00,019.1,019.6,000.0,027.4,021.4,06.7,0000.0,0002.09,0008.17,0001.27
2024-02-28 14:21:00,SystemResetWarning,0828.1,4.99,000.00,019.1,019.4,000.0,027.4,021.3,06.7,0000.0,0002.10,0008.23,0001.28
2024-02-28 14:22:00,SystemResetWarning,0828.1,4.99,000.00,019.1,019.2,000.0,027.4,021.1,06.9,0000.0,0002.13,0007.99,0001.27
2024-02-28 14:23:00,SystemResetWarning,0828.1,5.01,000.00,019.1,019.0,000.0,027.4,021.0,06.9,0000.0,0002.13,0007.59,0001.27
2024-02-28 14:24:00,SystemResetWarning,0828.1,5.01,000.00,019.1,018.8,000.0,027.4,020.9,07.2,0000.0,0002.16,0007.60,0001.26
2024-02-28 14:25:00,SystemResetWarning,0828.1,5.00,000.00,019.1,018.7,000.0,027.4,020.9,07.2,0000.0,0002.27,0007.44,0001.26
2024-02-28 14:26:00,SystemResetWarning,0828.1,5.00,000.00,019.1,018.6,000.0,027.4,020.8,06.9,0000.0,0002.29,0006.72,0001.28
2024-02-28 14:27:00,SystemResetWarning,0828.2,4.99,000.00,019.0,018.5,000.0,027.4,020.8,07.1,0000.0,0002.48,0007.16,0001.29
2024-02-28 14:28:00,SystemResetWarning,0828.1,5.00,000.00,019.0,018.4,000.0,027.4,020.8,07.4,0000.0,0002.57,0007.59,0001.29
2024-02-28 14:29:00,SystemResetWarning,0828.2,5.01,000.00,019.0,018.4,000.0,027.4,020.7,07.3,0000.0,0002.56,0007.58,0001.28
2024-02-28 14:30:00,SystemResetWarning,0828.2,5.01,000.00,018.9,018.3,000.0,027.4,020.7,07.5,0000.0,0002.53,0007.51,0001.27
2024-02-28 14:31:00,SystemResetWarning,0828.2,5.00,000.00,018.9,018.3,000.0,027.4,020.7,07.5,0000.0,0002.49,0006.44,0001.26
2024-02-28 14:32:00,SystemResetWarning,0828.2,4.99,000.00,018.9,018.3,000.0,027.4,020.7,07.6,0000.0,0002.49,0006.22,0001.25
2024-02-28 14:33:00,SystemResetWarning,0828.2,5.00,000.00,018.9,018.2,000.0,027.4,020.7,07.7,0000.0,0002.47,0006.21,0001.24
2024-02-28 14:34:00,SystemResetWarning,0828.3,5.02,000.00,018.8,018.2,000.0,027.4,020.6,07.7,0000.0,0002.41,0006.99,0001.23
2024-02-28 14:35:00,SystemResetWarning,0828.3,4.98,000.00,018.8,018.2,000.0,027.4,020.6,07.7,0000.0,0002.36,0007.51,0001.21
2024-02-28 14:36:00,SystemResetWarning,0828.3,5.00,000.00,018.8,018.1,000.0,027.3,020.6,07.9,0000.0,0002.31,0008.42,0001.19
2024-02-28 14:37:00,SystemResetWarning,0828.3,5.01,000.00,018.8,018.1,000.0,027.3,020.5,08.1,0000.0,0002.30,0008.94,0001.17
2024-02-28 14:38:00,SystemResetWarning,0828.4,5.00,000.00,018.8,018.0,000.0,027.3,020.5,08.2,0000.0,0002.15,0009.45,0001.14
2024-02-28 14:39:00,SystemResetWarning,0828.4,5.00,000.00,018.7,018.0,000.0,027.3,020.4,08.5,0000.0,0002.06,0009.69,0001.14
2024-02-28 14:40:00,SystemResetWarning,0828.4,4.99,000.00,018.7,018.0,000.0,027.3,020.4,08.3,0000.0,0002.02,0009.57,0001.13
2024-02-28 14:41:00,SystemResetWarning,0828.4,5.00,000.00,018.7,018.0,000.0,027.3,020.4,08.2,0000.0,0002.02,0009.61,0001.13
2024-02-28 14:42:00,SystemResetWarning,0828.4,5.00,000.00,018.7,017.9,000.0,027.2,020.4,08.1,0000.0,0002.06,0009.91,0001.12
2024-02-28 14:43:00,SystemResetWarning,0828.5,5.01,000.00,018.7,017.9,000.0,027.2,020.4,08.2,0000.0,0002.07,0009.87,0001.12
2024-02-28 14:44:00,SystemResetWarning,0828.6,5.01,000.00,018.6,017.9,000.0,027.2,020.4,08.6,0000.0,0002.15,0009.89,0001.11
2024-02-28 14:45:00,SystemResetWarning,0828.6,5.00,000.00,018.6,017.9,000.0,027.2,020.3,08.5,0000.0,0002.33,0009.67,0001.14
2024-02-28 14:46:00,SystemResetWarning,0828.6,5.00,000.00,018.6,017.9,000.0,027.2,020.3,08.5,0000.0,0002.41,0010.17,0001.16
2024-02-28 14:47:00,SystemResetWarning,0828.6,4.99,000.00,018.6,017.8,000.0,027.2,020.3,08.4,0000.0,0002.37,0010.28,0001.16
2024-02-28 14:48:00,SystemResetWarning,0828.6,5.00,000.00,018.6,018.1,000.0,027.2,020.5,08.5,0000.0,0002.43,0011.74,0001.17
2024-02-28 14:49:00,SystemResetWarning,0828.7,5.01,000.00,018.8,019.1,000.0,027.3,021.2,08.5,0000.0,0002.51,0012.64,0001.19
2024-02-28 14:50:00,SystemResetWarning,0828.8,4.99,000.00,019.1,019.9,000.0,027.4,021.7,08.3,0000.0,0002.61,0012.39,0001.21
2024-02-28 14:51:00,SystemResetWarning,0828.8,4.99,000.00,019.2,019.8,000.0,027.4,021.6,08.2,0000.0,0002.68,0013.43,0001.22
2024-02-28 14:52:00,SystemResetWarning,0828.7,5.01,000.00,019.2,019.6,000.0,027.4,021.5,08.2,0000.0,0002.70,0013.82,0001.23
2024-02-28 14:53:00,SystemResetWarning,0828.7,5.00,000.00,019.3,019.4,000.0,027.4,021.3,08.3,0000.0,0002.65,0013.80,0001.24
2024-02-28 14:54:00,SystemResetWarning,0828.7,5.00,000.00,019.3,019.3,000.0,027.5,021.2,08.4,0000.0,0002.64,0013.86,0001.25
2024-02-28 14:55:00,SystemResetWarning,0828.7,4.99,000.00,019.2,019.1,000.0,027.5,021.2,08.6,0000.0,0002.61,0014.68,0001.28
2024-02-28 14:56:00,SystemResetWarning,0828.7,4.99,000.00,019.2,019.0,000.0,027.5,021.1,08.6,0000.0,0002.48,0014.42,0001.28
2024-02-28 14:57:00,SystemResetWarning,0828.7,5.00,000.00,019.2,018.9,000.0,027.5,021.1,08.5,0000.0,0002.43,0013.70,0001.29
2024-02-28 14:58:00,SystemResetWarning,0828.7,5.00,000.00,019.2,018.8,000.0,027.5,021.0,08.5,0000.0,0002.43,0012.93,0001.31
2024-02-28 14:59:00,SystemResetWarning,0828.7,5.01,000.00,019.2,018.7,000.0,027.5,021.0,08.4,0000.0,0002.38,0011.12,0001.32
